Regional Weather Roundup
Issued by NWS Little Rock, AR

Home | Current Version | Previous Version | Text Only | Print | Product List | Glossary On
Versions: 1 2 3 4 5 6 7 8 9 10 11 12 13 14 15 16 17 18 19 20 21 22 23 24 25 26 27 28 29 30 31 32 33 34 35 36 37 38 39 40 41 42 43 44 45 46 47 48 49 50
000
ASUS44 KLZK 072000
RWRLZK
ARKANSAS STATE WEATHER ROUNDUP
NATIONAL WEATHER SERVICE LITTLE ROCK AR
ISSUED BY NATIONAL WEATHER SERVICE MEMPHIS TN
300 PM CDT TUE JUL 07 2015

NOTE: "FAIR" INDICATES FEW OR NO CLOUDS BELOW 12,000 FEET WITH NO
SIGNIFICANT WEATHER AND/OR OBSTRUCTIONS TO VISIBILITY.

ARZ001-003-010-029-072100-
NORTHWEST ARKANSAS

CITY           SKY/WX    TMP DP  RH WIND       PRES   REMARKS
FORT SMITH     CLOUDY    81  70  69 N15G21    29.96R
HARRISON       RAIN      72  71  97 S5        30.04R
BENTONVILLE    CLOUDY    73  70  88 S7        30.02F
SILOAM SPGS    CLOUDY    72  68  88 S8        30.03S
HIGHFILL       LGT RAIN  73  72  96 S7        30.02S
$$

ARZ004-005-016-072100-
NORTH CENTRAL ARKANSAS

CITY           SKY/WX    TMP DP  RH WIND       PRES   REMARKS
BATESVILLE     CLOUDY    86  75  70 SW9       29.98S HX  95
FLIPPIN        CLOUDY    73  70  88 CALM      30.01R
MTN HOME       LGT RAIN  73  72  96 S5        30.02R
$$

ARZ040-041-072100-
WEST CENTRAL ARKANSAS

CITY           SKY/WX    TMP DP  RH WIND       PRES   REMARKS
MOUNT IDA      LGT RAIN  86  73  65 VRB7      29.98F HX  93
$$

ARZ017-025-026-028-072100-
NORTHEAST ARKANSAS

CITY           SKY/WX    TMP DP  RH WIND       PRES   REMARKS
JONESBORO      PTSUNNY   88  74  63 SW17      29.98S HX  96
WALNUT RIDGE   CLOUDY    86  73  66 SW9       29.97S HX  93
BLYTHEVILLE    MOSUNNY   90  76  63 SW15G23   29.98F HX 101
$$

ARZ022-033-042-044-072100-
CENTRAL ARKANSAS

CITY           SKY/WX    TMP DP  RH WIND       PRES   REMARKS
LITTLE ROCK    PTSUNNY   92  72  51 S15G22    29.99S HX  99
SEARCY         PTSUNNY   90  76  63 SW9       29.99F HX 101
HOT SPRINGS    MOSUNNY   90  72  55 SW12G18   29.99F HX  97
RUSSELLVILLE   PTSUNNY   89  74  60 SW10      29.96F HX  98
$$

ARZ036-072100-
EAST ARKANSAS

CITY           SKY/WX    TMP DP  RH WIND       PRES   REMARKS
WEST MEMPHIS   MOSUNNY   88  77  69 S10       30.01S HX 100
$$

ARZ050-070-073-072100-
SOUTHWEST ARKANSAS

CITY           SKY/WX    TMP DP  RH WIND       PRES   REMARKS
TEXARKANA      MOSUNNY   92  73  53 S14       29.99F HX 100
EL DORADO      PTSUNNY   89  72  56 S16G22    30.02F HX  96
DEQUEEN        MOSUNNY   88  74  63 SW12G20   29.95F HX  96
$$

ARZ056-057-069-072100-
SOUTHEAST ARKANSAS

CITY           SKY/WX    TMP DP  RH WIND       PRES   REMARKS
PINE BLUFF     MOSUNNY   90  75  61 S14       30.01F HX 100
STUTTGART      MOSUNNY   91  75  59 MISG      30.00S HX 102
MONTICELLO     MOSUNNY   91  74  57 S15       30.03F HX 100
$$



USA.gov is the U.S. government's official web portal to all federal, state and local government web resources and services.